[Iaude] MPEC T113: 2008 TP26 [a=1.09,e=0.29,i=13.3,H=23.8]

mpec at si.edu mpec at si.edu
Tue Oct 11 13:08:20 EDT 2016


M.P.E.C. 2016-T113                               Issued 2016 Oct. 11, 17:03 UT
 
     The Minor Planet Electronic Circulars contain information on unusual
         minor planets and routine data on comets.  They are published
    on behalf of Division F of the International Astronomical Union by the
          Minor Planet Center, Smithsonian Astrophysical Observatory,
                          Cambridge, MA 02138, U.S.A.

             Prepared using the Tamkin Foundation Computer Network

                              MPC at CFA.HARVARD.EDU
            URL http://www.minorplanetcenter.net/    ISSN 1523-6714


                                   2008 TP26
 
                          Revision to MPEC 2008-T117
 
Additional Observations:
     K08T26P  C2016 10 09.28355 00 27 29.18 +07 39 55.5          21.1 VqET113G96
     K08T26P  C2016 10 09.28917 00 27 27.61 +07 40 06.7          20.3 VqET113G96
     K08T26P  C2016 10 09.29484 00 27 26.01 +07 40 18.6          20.9 VqET113G96
     K08T26P  C2016 10 09.30051 00 27 24.38 +07 40 31.3          20.5 VqET113G96
     K08T26P  C2016 10 09.37082 00 27 04.67 +07 42 50.5          21.6 VqET113G96
     K08T26P  C2016 10 09.37270 00 27 04.14 +07 42 54.8          21.2 VqET113G96
     K08T26P  C2016 10 09.37575 00 27 03.29 +07 43 00.9          21.1 VqET113G96
     K08T26P  C2016 10 09.37753 00 27 02.80 +07 43 03.7          21.2 VqET113G96
     K08T26P  C2016 10 09.39155 00 26 58.97 +07 43 31.9          21.3 VqET113G96
     K08T26P  C2016 10 09.39491 00 26 57.96 +07 43 38.7          20.5 VqET113G96
     K08T26P  C2016 10 09.39886 00 26 56.86 +07 43 46.9          20.8 VqET113G96
     K08T26P  C2016 10 09.40281 00 26 55.80 +07 43 54.9          21.2 VqET113G96
     K08T26P  C2016 10 10.27326 00 23 14.37 +08 12 16.4          20.9 VqET113G96
     K08T26P  C2016 10 10.27508 00 23 13.88 +08 12 19.0          20.8 VqET113G96
     K08T26P  C2016 10 10.27717 00 23 13.37 +08 12 23.3          20.8 VqET113G96
     K08T26P  C2016 10 10.27895 00 23 12.88 +08 12 27.0          21.0 VqET113G96
 
Observer details:
G96 Mt. Lemmon Survey.  Observers G. J. Leonard, R. G. Matheny.  Measurers
    E. J. Christensen, D. C. Fuls, A. R. Gibbs, A. D. Grauer, J. A. Johnson,
    R. A. Kowalski, S. M. Larson, G. J. Leonard, R. G. Matheny, R. L. Seaman,
    F. C. Shelly.  1.5-m reflector + 10K CCD.
 
First and last observations above in comparison with prediction:
Residuals in seconds of arc (or two decimals in degrees), reference and Delta-T
161009 G96 0.73- 0.53-    161010 G96 0.71- 0.51-    MPO147535   +0.20 day
 
Orbital elements:
2008 TP26                                                Earth MOID = 0.0793 AU
Epoch 2016 July 31.0 TT = JDT 2457600.5                 MPC
M  29.32354              (2000.0)            P               Q
n   0.86078752     Peri.  241.72050     -0.27984543     +0.95878361
a   1.0944739      Node    12.33022     -0.78022343     -0.19726931
e   0.2873998      Incl.   13.32003     -0.55940855     -0.20449647
P   1.15           H   23.8           G   0.15           U   4
Residuals in seconds of arc
081009 G96  0.3+  0.1-    081010 G96  0.4+  0.9-    161009 G96  0.1-  0.2+
081009 G96  1.1-  0.4+    081022 568  0.0   0.0     161009 G96  0.2-  0.2+
081009 G96  0.0   0.1-    081022 568  0.1+  0.0     161009 G96  0.1-  0.6-
081009 G96  0.7+  0.2-    081022 568  0.1-  0.0     161009 G96  0.7+  0.2-
081009 G96  0.3-  0.1-    081028 H01  0.2+  0.1-    161009 G96  0.5-  0.1-
081009 G96  0.2+  0.0     081028 H01  0.2+  0.2-    161009 G96  0.6-  0.3+
081009 G96  0.2+  0.5+    081028 H01  0.0   0.1-    161009 G96  0.2-  0.4+
081009 H01  0.0   0.3+    161009 G96  0.1-  0.2-    161010 G96  0.0   0.2+
081009 H01  0.2-  0.3+    161009 G96  0.1+  0.4-    161010 G96  0.0   0.6-
081010 G96  0.6-  0.1+    161009 G96  0.2+  0.1+    161010 G96  0.7+  0.3-
081010 G96  0.2+  0.3-    161009 G96  0.3-  1.3+    161010 G96  0.4+  0.0
081010 G96  0.1+  0.0     161009 G96  0.0   0.4-

Ephemeris:
2008 TP26                a,e,i = 1.09, 0.29, 13                  q = 0.7799
Date    TT    R. A. (2000) Decl.     Delta      r     Elong.  Phase     V
2016 09 11    04 11 59.2 -20 39 52   0.1239  1.0495   106.9    66.6    21.7
...
2016 09 26    01 52 20.6 -03 33 24   0.1296  1.1208   154.3    22.8    20.7
...
2016 10 04    00 54 49.9 +04 08 49   0.1567  1.1567   176.4     3.1    20.4
...
2016 10 10    00 24 23.4 +08 03 51   0.1861  1.1825   170.5     8.0    21.1
2016 10 11    00 20 17.1 +08 35 01   0.1916  1.1867   168.6     9.6    21.2
2016 10 12    00 16 25.9 +09 04 14   0.1972  1.1908   166.7    11.1    21.3
...
2016 10 18    23 58 01.4 +11 25 08   0.2341  1.2150   156.9    18.8    22.0
...
2016 10 26    23 43 29.8 +13 28 40   0.2897  1.2453   146.2    26.4    22.8
...
2016 11 10    23 36 30.3 +15 47 48   0.4086  1.2957   131.0    35.2    23.9

A. U. Tomatic                (C) Copyright 2016 MPC           M.P.E.C. 2016-T113




More information about the Iaude mailing list